Time,TemperatureF,DewpointF,PressureIn,WindDirection,WindDirectionDegrees,WindSpeedMPH,WindSpeedGustMPH,Humidity,HourlyPrecipIn,Conditions,Clouds,dailyrainin,SolarRadiationWatts/m^2,SoftwareType,DateUTC
2013-01-23 00:21:00,14.2,-2.3,30.31,NNW,346,4.0,8.0,47,0.00,,CLR,0.00,0.00,VWS V14.01,2013-01-23 05:21:00,
2013-01-23 00:26:00,14.2,-3.2,30.31,North,1,5.0,9.0,45,0.00,,CLR,0.00,0.00,VWS V14.01,2013-01-23 05:26:00,
2013-01-23 00:32:00,14.2,-3.2,30.31,NNW,340,6.0,13.0,45,0.00,,CLR,0.00,0.00,VWS V14.01,2013-01-23 05:32:00,
2013-01-23 00:37:00,14.2,-3.2,30.31,NNW,339,5.0,5.0,45,0.00,,CLR,0.00,0.00,VWS V14.01,2013-01-23 05:37:00,
2013-01-23 00:42:00,14.2,-3.2,30.31,North,352,0.0,8.0,45,0.00,,CLR,0.00,0.00,VWS V14.01,2013-01-23 05:42:00,
2013-01-23 00:47:00,14.1,-3.3,30.31,NNW,332,3.0,11.0,45,0.00,,CLR,0.00,0.00,VWS V14.01,2013-01-23 05:47:00,
2013-01-23 00:52:00,14.1,-3.3,30.31,NNW,340,6.0,11.0,45,0.00,,CLR,0.00,0.00,VWS V14.01,2013-01-23 05:52:00,
2013-01-23 00:57:00,14.1,-3.3,30.31,North,0,2.0,8.0,45,0.00,,CLR,0.00,0.00,VWS V14.01,2013-01-23 05:57:00,
2013-01-23 01:02:00,14.1,-2.9,30.31,North,0,4.0,8.0,46,0.00,,CLR,0.00,0.00,VWS V14.01,2013-01-23 06:02:00,
2013-01-23 01:07:00,13.9,-3.5,30.31,NNW,343,4.0,10.0,45,0.00,,CLR,0.00,0.00,VWS V14.01,2013-01-23 06:07:00,
2013-01-23 01:12:00,13.9,-3.0,30.31,North,359,3.0,10.0,46,0.00,,CLR,0.00,0.00,VWS V14.01,2013-01-23 06:12:00,
2013-01-23 01:18:00,13.9,-3.0,30.31,North,354,6.0,7.0,46,0.00,,CLR,0.00,0.00,VWS V14.01,2013-01-23 06:18:00,
2013-01-23 01:23:00,13.9,-3.0,30.31,North,357,3.0,8.0,46,0.00,,CLR,0.00,0.00,VWS V14.01,2013-01-23 06:23:00,
2013-01-23 01:28:00,13.8,-3.1,30.31,NNE,20,3.0,6.0,46,0.00,,CLR,0.00,0.00,VWS V14.01,2013-01-23 06:28:00,
2013-01-23 01:33:00,13.8,-3.1,30.31,North,357,0.0,6.0,46,0.00,,CLR,0.00,0.00,VWS V14.01,2013-01-23 06:33:00,
2013-01-23 01:38:00,13.6,-2.9,30.31,North,353,2.0,5.0,47,0.00,,CLR,0.00,0.00,VWS V14.01,2013-01-23 06:38:00,
2013-01-23 01:43:00,13.6,-2.9,30.31,North,353,0.0,5.0,47,0.00,,CLR,0.00,0.00,VWS V14.01,2013-01-23 06:43:00,
2013-01-23 01:48:00,13.6,-3.3,30.31,North,353,0.0,0.0,46,0.00,,CLR,0.00,0.00,VWS V14.01,2013-01-23 06:48:00,
2013-01-23 01:54:00,13.4,-3.5,30.32,North,0,0.0,0.0,46,0.00,,CLR,0.00,0.00,VWS V14.01,2013-01-23 06:54:00,
2013-01-23 01:59:00,13.4,-2.6,30.32,North,0,0.0,0.0,48,0.00,,CLR,0.00,0.00,VWS V14.01,2013-01-23 06:59:00,
2013-01-23 02:04:00,13.3,-3.2,30.32,North,0,0.0,3.0,47,0.00,,CLR,0.00,0.00,VWS V14.01,2013-01-23 07:04:00,
2013-01-23 02:09:00,13.3,-2.7,30.32,North,0,3.0,7.0,48,0.00,,CLR,0.00,0.00,VWS V14.01,2013-01-23 07:09:00,
2013-01-23 02:14:00,13.4,-2.6,30.32,North,0,0.0,7.0,48,0.00,,CLR,0.00,0.00,VWS V14.01,2013-01-23 07:14:00,
2013-01-23 02:19:00,13.6,-2.9,30.33,NNE,18,3.0,6.0,47,0.00,,CLR,0.00,0.00,VWS V14.01,2013-01-23 07:19:00,
2013-01-23 02:24:00,13.6,-2.9,30.33,North,0,0.0,6.0,47,0.00,,CLR,0.00,0.00,VWS V14.01,2013-01-23 07:24:00,
2013-01-23 02:29:00,13.6,-2.4,30.33,North,0,0.0,2.0,48,0.00,,CLR,0.00,0.00,VWS V14.01,2013-01-23 07:29:00,
2013-01-23 02:34:00,13.4,-2.2,30.33,North,359,0.0,5.0,49,0.00,,CLR,0.00,0.00,VWS V14.01,2013-01-23 07:34:00,
2013-01-23 02:39:00,13.4,-3.1,30.33,NNW,337,4.0,7.0,47,0.00,,CLR,0.00,0.00,VWS V14.01,2013-01-23 07:39:00,
2013-01-23 02:44:00,13.4,-3.1,30.33,NNW,339,5.0,7.0,47,0.00,,CLR,0.00,0.00,VWS V14.01,2013-01-23 07:44:00,
2013-01-23 02:49:00,13.4,-3.5,30.33,North,354,0.0,8.0,46,0.00,,CLR,0.00,0.00,VWS V14.01,2013-01-23 07:49:00,
2013-01-23 02:54:00,13.4,-3.5,30.33,North,354,3.0,10.0,46,0.00,,CLR,0.00,0.00,VWS V14.01,2013-01-23 07:54:00,
2013-01-23 02:59:00,13.4,-3.1,30.33,NW,315,6.0,11.0,47,0.00,,CLR,0.00,0.00,VWS V14.01,2013-01-23 07:59:00,
2013-01-23 03:05:00,13.4,-3.5,30.33,North,0,6.0,14.0,46,0.00,,CLR,0.00,0.00,VWS V14.01,2013-01-23 08:05:00,
2013-01-23 03:10:00,13.4,-3.5,30.33,NNE,23,5.0,8.0,46,0.00,,CLR,0.00,0.00,VWS V14.01,2013-01-23 08:10:00,
2013-01-23 03:15:00,13.3,-3.2,30.33,North,0,2.0,11.0,47,0.00,,CLR,0.00,0.00,VWS V14.01,2013-01-23 08:15:00,
2013-01-23 03:20:00,13.3,-3.2,30.33,North,0,7.0,7.0,47,0.00,,CLR,0.00,0.00,VWS V14.01,2013-01-23 08:20:00,
2013-01-23 03:25:00,13.3,-3.2,30.33,North,4,0.0,7.0,47,0.00,,CLR,0.00,0.00,VWS V14.01,2013-01-23 08:25:00,
2013-01-23 03:30:00,13.1,-3.3,30.33,North,0,2.0,7.0,47,0.00,,CLR,0.00,0.00,VWS V14.01,2013-01-23 08:30:00,
2013-01-23 03:35:00,13.1,-2.9,30.33,NNW,332,2.0,7.0,48,0.00,,CLR,0.00,0.00,VWS V14.01,2013-01-23 08:35:00,
2013-01-23 03:40:00,13.1,-2.9,30.33,North,352,5.0,8.0,48,0.00,,CLR,0.00,0.00,VWS V14.01,2013-01-23 08:40:00,
2013-01-23 03:45:00,13.1,-3.3,30.33,North,359,3.0,3.0,47,0.00,,CLR,0.00,0.00,VWS V14.01,2013-01-23 08:45:00,
2013-01-23 03:50:00,13.1,-3.3,30.33,North,7,2.0,8.0,47,0.00,,CLR,0.00,0.00,VWS V14.01,2013-01-23 08:50:00,
2013-01-23 03:55:00,13.1,-3.3,30.33,NNW,339,2.0,3.0,47,0.00,,CLR,0.00,0.00,VWS V14.01,2013-01-23 08:55:00,
2013-01-23 04:00:00,13.1,-2.5,30.33,North,356,7.0,8.0,49,0.00,,CLR,0.00,0.00,VWS V14.01,2013-01-23 09:00:00,
2013-01-23 04:05:00,13.1,-2.9,30.33,NNW,332,6.0,8.0,48,0.00,,CLR,0.00,0.00,VWS V14.01,2013-01-23 09:05:00,
2013-01-23 04:10:00,13.1,-3.3,30.33,North,0,2.0,11.0,47,0.00,,CLR,0.00,0.00,VWS V14.01,2013-01-23 09:10:00,
2013-01-23 04:15:00,13.1,-2.9,30.33,North,353,3.0,7.0,48,0.00,,CLR,0.00,0.00,VWS V14.01,2013-01-23 09:15:00,
2013-01-23 04:20:00,13.1,-2.5,30.33,NNW,346,3.0,11.0,49,0.00,,CLR,0.00,0.00,VWS V14.01,2013-01-23 09:20:00,
2013-01-23 04:25:00,13.1,-2.9,30.33,North,353,6.0,6.0,48,0.00,,CLR,0.00,0.00,VWS V14.01,2013-01-23 09:25:00,
2013-01-23 04:30:00,13.1,-2.9,30.33,NW,313,8.0,11.0,48,0.00,,CLR,0.00,0.00,VWS V14.01,2013-01-23 09:30:00,
2013-01-23 04:36:00,13.1,-3.3,30.33,North,0,3.0,8.0,47,0.00,,CLR,0.00,0.00,VWS V14.01,2013-01-23 09:36:00,
2013-01-23 04:41:00,13.1,-2.9,30.33,NNW,347,2.0,13.0,48,0.00,,CLR,0.00,0.00,VWS V14.01,2013-01-23 09:41:00,
2013-01-23 04:46:00,13.1,-3.3,30.33,North,0,7.0,14.0,47,0.00,,CLR,0.00,0.00,VWS V14.01,2013-01-23 09:46:00,
2013-01-23 04:51:00,13.1,-2.9,30.33,North,0,12.0,14.0,48,0.00,,CLR,0.00,0.00,VWS V14.01,2013-01-23 09:51:00,
2013-01-23 04:56:00,13.1,-2.5,30.33,NNW,336,8.0,11.0,49,0.00,,CLR,0.00,0.00,VWS V14.01,2013-01-23 09:56:00,
2013-01-23 05:01:00,13.1,-2.5,30.33,North,0,6.0,11.0,49,0.00,,CLR,0.00,0.00,VWS V14.01,2013-01-23 10:01:00,
2013-01-23 05:06:00,13.0,-2.6,30.33,North,0,5.0,8.0,49,0.00,,CLR,0.00,0.00,VWS V14.01,2013-01-23 10:06:00,
2013-01-23 05:12:00,13.0,-3.0,30.33,North,0,4.0,16.0,48,0.00,,CLR,0.00,0.00,VWS V14.01,2013-01-23 10:12:00,
2013-01-23 05:17:00,13.0,-3.0,30.33,North,359,6.0,6.0,48,0.00,,CLR,0.00,0.00,VWS V14.01,2013-01-23 10:17:00,
2013-01-23 05:22:00,13.0,-3.0,30.33,North,0,7.0,7.0,48,0.00,,CLR,0.00,0.00,VWS V14.01,2013-01-23 10:22:00,
2013-01-23 05:27:00,13.0,-3.0,30.33,NNW,347,6.0,10.0,48,0.00,,CLR,0.00,0.00,VWS V14.01,2013-01-23 10:27:00,
2013-01-23 05:32:00,13.0,-3.0,30.33,North,11,5.0,10.0,48,0.00,,CLR,0.00,0.00,VWS V14.01,2013-01-23 10:32:00,
2013-01-23 05:37:00,13.0,-3.0,30.33,NNE,18,4.0,5.0,48,0.00,,CLR,0.00,0.00,VWS V14.01,2013-01-23 10:37:00,
2013-01-23 05:43:00,12.8,-3.2,30.33,NNW,333,2.0,9.0,48,0.00,,CLR,0.00,0.00,VWS V14.01,2013-01-23 10:43:00,
2013-01-23 05:48:00,12.8,-2.7,30.33,NNE,30,6.0,11.0,49,0.00,,CLR,0.00,0.00,VWS V14.01,2013-01-23 10:48:00,
2013-01-23 05:53:00,12.8,-2.7,30.33,North,0,5.0,11.0,49,0.00,,CLR,0.00,0.00,VWS V14.01,2013-01-23 10:53:00,
2013-01-23 05:58:00,12.8,-3.2,30.33,North,1,5.0,11.0,48,0.00,,CLR,0.00,0.00,VWS V14.01,2013-01-23 10:58:00,
2013-01-23 06:03:00,12.8,-3.2,30.33,North,0,6.0,11.0,48,0.00,,CLR,0.00,0.00,VWS V14.01,2013-01-23 11:03:00,
2013-01-23 06:08:00,12.8,-3.2,30.33,NNW,335,5.0,7.0,48,0.00,,CLR,0.00,0.00,VWS V14.01,2013-01-23 11:08:00,
2013-01-23 06:13:00,12.8,-3.2,30.33,North,10,7.0,7.0,48,0.00,,CLR,0.00,0.00,VWS V14.01,2013-01-23 11:13:00,
2013-01-23 06:18:00,12.6,-3.4,30.33,North,359,3.0,4.0,48,0.00,,CLR,0.00,0.00,VWS V14.01,2013-01-23 11:18:00,
2013-01-23 06:23:00,12.6,-3.4,30.34,North,0,5.0,5.0,48,0.00,,CLR,0.00,0.00,VWS V14.01,2013-01-23 11:23:00,
2013-01-23 06:28:00,12.5,-3.5,30.34,North,6,1.0,1.0,48,0.00,,CLR,0.00,0.00,VWS V14.01,2013-01-23 11:28:00,
2013-01-23 06:33:00,12.5,-3.5,30.34,North,6,1.0,1.0,48,0.00,,CLR,0.00,0.00,VWS V14.01,2013-01-23 11:33:00,
2013-01-23 06:38:00,12.3,-3.6,30.34,NNW,342,4.0,7.0,48,0.00,,CLR,0.00,0.00,VWS V14.01,2013-01-23 11:38:00,
2013-01-23 06:43:00,12.5,-3.5,30.34,North,1,5.0,7.0,48,0.00,,CLR,0.00,0.00,VWS V14.01,2013-01-23 11:43:00,
2013-01-23 06:48:00,12.5,-3.0,30.34,North,8,3.0,8.0,49,0.00,,CLR,0.00,0.00,VWS V14.01,2013-01-23 11:48:00,
2013-01-23 06:54:00,12.5,-3.0,30.35,North,10,1.0,8.0,49,0.00,,CLR,0.00,0.00,VWS V14.01,2013-01-23 11:54:00,
2013-01-23 06:59:00,12.5,-3.0,30.35,North,8,3.0,6.0,49,0.00,,CLR,0.00,0.00,VWS V14.01,2013-01-23 11:59:00,
2013-01-23 07:04:00,12.5,-3.0,30.35,North,359,6.0,6.0,49,0.00,,CLR,0.00,0.00,VWS V14.01,2013-01-23 12:04:00,
2013-01-23 07:09:00,12.5,-3.0,30.35,North,0,6.0,6.0,49,0.00,,CLR,0.00,0.00,VWS V14.01,2013-01-23 12:09:00,
2013-01-23 07:14:00,12.5,-3.0,30.35,North,0,5.0,6.0,49,0.00,,CLR,0.00,0.00,VWS V14.01,2013-01-23 12:14:00,
2013-01-23 07:19:00,12.5,-3.0,30.35,North,0,5.0,8.0,49,0.00,,CLR,0.00,0.00,VWS V14.01,2013-01-23 12:19:00,
2013-01-23 07:24:00,12.5,-3.0,30.36,North,6,2.0,8.0,49,0.00,,CLR,0.00,0.00,VWS V14.01,2013-01-23 12:24:00,
2013-01-23 07:29:00,12.5,-2.6,30.36,North,0,1.0,7.0,50,0.00,,CLR,0.00,0.00,VWS V14.01,2013-01-23 12:29:00,
2013-01-23 07:34:00,12.5,-2.6,30.36,North,4,4.0,7.0,50,0.00,,CLR,0.00,0.00,VWS V14.01,2013-01-23 12:34:00,
2013-01-23 07:39:00,12.3,-2.8,30.35,North,6,7.0,7.0,50,0.00,,CLR,0.00,7.00,VWS V14.01,2013-01-23 12:39:00,
2013-01-23 07:44:00,12.3,-3.2,30.35,North,0,2.0,8.0,49,0.00,,CLR,0.00,12.00,VWS V14.01,2013-01-23 12:44:00,
2013-01-23 07:49:00,12.5,-2.6,30.36,North,352,1.0,6.0,50,0.00,,CLR,0.00,18.00,VWS V14.01,2013-01-23 12:49:00,
2013-01-23 07:54:00,12.5,-3.0,30.36,NNE,28,2.0,6.0,49,0.00,,CLR,0.00,19.00,VWS V14.01,2013-01-23 12:54:00,
2013-01-23 07:59:00,12.5,-3.0,30.36,NNE,32,2.0,6.0,49,0.00,,CLR,0.00,26.00,VWS V14.01,2013-01-23 12:59:00,
2013-01-23 08:04:00,12.5,-2.6,30.35,NNE,21,0.0,6.0,50,0.00,,CLR,0.00,28.00,VWS V14.01,2013-01-23 13:04:00,
2013-01-23 08:09:00,12.5,-2.6,30.35,NNE,24,0.0,0.0,50,0.00,,CLR,0.00,32.00,VWS V14.01,2013-01-23 13:09:00,
2013-01-23 08:14:00,12.5,-2.6,30.35,NNW,344,2.0,3.0,50,0.00,,CLR,0.00,37.00,VWS V14.01,2013-01-23 13:14:00,
2013-01-23 08:19:00,12.6,-2.5,30.36,North,357,0.0,6.0,50,0.00,,CLR,0.00,40.00,VWS V14.01,2013-01-23 13:19:00,
2013-01-23 08:25:00,12.6,-2.1,30.36,North,0,0.0,6.0,51,0.00,,CLR,0.00,49.00,VWS V14.01,2013-01-23 13:25:00,
2013-01-23 08:30:00,12.8,-2.3,30.36,North,357,0.0,1.0,50,0.00,,CLR,0.00,51.00,VWS V14.01,2013-01-23 13:30:00,
2013-01-23 08:35:00,12.8,-2.7,30.36,North,7,0.0,6.0,49,0.00,,CLR,0.00,60.00,VWS V14.01,2013-01-23 13:35:00,
2013-01-23 08:40:00,13.0,-3.0,30.36,North,354,0.0,3.0,48,0.00,,CLR,0.00,65.00,VWS V14.01,2013-01-23 13:40:00,
2013-01-23 08:45:00,13.1,-2.9,30.36,North,0,1.0,7.0,48,0.00,,CLR,0.00,104.00,VWS V14.01,2013-01-23 13:45:00,
2013-01-23 08:50:00,13.3,-2.7,30.36,North,0,3.0,6.0,48,0.00,,CLR,0.00,106.00,VWS V14.01,2013-01-23 13:50:00,
2013-01-23 08:55:00,13.4,-2.6,30.36,NNE,25,0.0,1.0,48,0.00,,CLR,0.00,128.00,VWS V14.01,2013-01-23 13:55:00,
2013-01-23 09:00:00,13.6,-2.4,30.36,NNE,23,6.0,6.0,48,0.00,,CLR,0.00,155.00,VWS V14.01,2013-01-23 14:00:00,
2013-01-23 09:05:00,13.9,-1.7,30.36,NNW,346,6.0,6.0,49,0.00,,CLR,0.00,194.00,VWS V14.01,2013-01-23 14:05:00,
2013-01-23 09:11:00,14.1,-2.4,30.36,WNW,302,0.0,6.0,47,0.00,,CLR,0.00,253.00,VWS V14.01,2013-01-23 14:11:00,
2013-01-23 09:16:00,14.4,-2.6,30.36,North,0,5.0,5.0,46,0.00,,CLR,0.00,241.00,VWS V14.01,2013-01-23 14:16:00,
2013-01-23 09:21:00,14.6,-2.9,30.36,North,0,3.0,11.0,45,0.00,,CLR,0.00,211.00,VWS V14.01,2013-01-23 14:21:00,
2013-01-23 09:26:00,14.9,-2.1,30.36,NNE,30,1.0,2.0,46,0.00,,CLR,0.00,271.00,VWS V14.01,2013-01-23 14:26:00,
2013-01-23 09:31:00,15.1,-2.4,30.36,NNE,18,5.0,6.0,45,0.00,,CLR,0.00,116.00,VWS V14.01,2013-01-23 14:31:00,
2013-01-23 09:36:00,15.1,-3.4,30.37,NNW,339,5.0,5.0,43,0.00,,CLR,0.00,116.00,VWS V14.01,2013-01-23 14:36:00,
2013-01-23 09:41:00,15.2,-2.8,30.37,NNW,340,5.0,7.0,44,0.00,,CLR,0.00,306.00,VWS V14.01,2013-01-23 14:41:00,
2013-01-23 09:46:00,15.4,-3.1,30.37,NNW,328,6.0,12.0,43,0.00,,CLR,0.00,306.00,VWS V14.01,2013-01-23 14:46:00,
2013-01-23 09:51:00,15.5,-3.0,30.36,NNW,333,7.0,12.0,43,0.00,,CLR,0.00,306.00,VWS V14.01,2013-01-23 14:51:00,
2013-01-23 09:56:00,15.7,-2.3,30.36,North,359,2.0,6.0,44,0.00,,CLR,0.00,299.00,VWS V14.01,2013-01-23 14:56:00,
2013-01-23 10:01:00,15.9,-3.1,30.36,North,353,1.0,7.0,42,0.00,,CLR,0.00,308.00,VWS V14.01,2013-01-23 15:01:00,
2013-01-23 10:06:00,16.2,-1.9,30.36,NW,325,2.0,9.0,44,0.00,,CLR,0.00,370.00,VWS V14.01,2013-01-23 15:06:00,
2013-01-23 10:12:00,16.7,-2.4,30.36,North,359,3.0,10.0,42,0.00,,CLR,0.00,399.00,VWS V14.01,2013-01-23 15:12:00,
2013-01-23 10:17:00,16.8,-3.3,30.36,North,0,2.0,8.0,40,0.00,,CLR,0.00,413.00,VWS V14.01,2013-01-23 15:17:00,
2013-01-23 10:22:00,16.7,-2.4,30.36,North,8,7.0,11.0,42,0.00,,CLR,0.00,405.00,VWS V14.01,2013-01-23 15:22:00,
2013-01-23 10:27:00,16.2,-2.8,30.36,North,8,4.0,6.0,42,0.00,,CLR,0.00,74.00,VWS V14.01,2013-01-23 15:27:00,
2013-01-23 10:32:00,16.3,-2.3,30.36,North,354,2.0,8.0,43,0.00,,CLR,0.00,74.00,VWS V14.01,2013-01-23 15:32:00,
2013-01-23 10:37:00,16.5,-2.1,30.36,North,0,4.0,8.0,43,0.00,,CLR,0.00,74.00,VWS V14.01,2013-01-23 15:37:00,
2013-01-23 10:42:00,16.7,-1.9,30.36,North,0,6.0,12.0,43,0.00,,CLR,0.00,74.00,VWS V14.01,2013-01-23 15:42:00,
2013-01-23 10:47:00,17.1,-1.5,30.36,North,354,5.0,11.0,43,0.00,,CLR,0.00,74.00,VWS V14.01,2013-01-23 15:47:00,
2013-01-23 10:52:00,17.1,-3.6,30.36,North,0,4.0,13.0,39,0.00,,CLR,0.00,294.00,VWS V14.01,2013-01-23 15:52:00,
2013-01-23 10:57:00,17.3,-1.9,30.36,North,6,7.0,14.0,42,0.00,,CLR,0.00,260.00,VWS V14.01,2013-01-23 15:57:00,
2013-01-23 11:02:00,17.3,-1.9,30.36,North,6,7.0,14.0,42,0.00,,CLR,0.00,260.00,VWS V14.01,2013-01-23 16:02:00,
2013-01-23 11:07:00,17.3,-1.9,30.34,North,0,6.0,8.0,42,0.00,,CLR,0.00,260.00,VWS V14.01,2013-01-23 16:07:00,
2013-01-23 11:12:00,17.3,-1.9,30.34,North,4,7.0,8.0,42,0.00,,CLR,0.00,260.00,VWS V14.01,2013-01-23 16:12:00,
2013-01-23 11:18:00,17.3,-3.4,30.34,North,0,4.0,7.0,39,0.00,,CLR,0.00,260.00,VWS V14.01,2013-01-23 16:18:00,
2013-01-23 11:23:00,18.4,-1.9,30.34,NNW,344,3.0,7.0,40,0.00,,CLR,0.00,255.00,VWS V14.01,2013-01-23 16:23:00,
2013-01-23 11:28:00,18.2,-3.1,30.34,North,0,5.0,6.0,38,0.00,,CLR,0.00,264.00,VWS V14.01,2013-01-23 16:28:00,
2013-01-23 11:33:00,18.2,-2.6,30.34,North,0,6.0,10.0,39,0.00,,CLR,0.00,264.00,VWS V14.01,2013-01-23 16:33:00,
2013-01-23 11:38:00,18.2,-3.7,30.32,North,0,6.0,6.0,37,0.00,,CLR,0.00,264.00,VWS V14.01,2013-01-23 16:38:00,
2013-01-23 11:43:00,18.4,-4.1,30.32,North,0,2.0,10.0,36,0.00,,CLR,0.00,243.00,VWS V14.01,2013-01-23 16:43:00,
2013-01-23 11:48:00,18.9,-2.5,30.32,North,354,4.0,10.0,38,0.00,,CLR,0.00,266.00,VWS V14.01,2013-01-23 16:48:00,
2013-01-23 11:53:00,19.2,-2.2,30.31,NNW,335,4.0,12.0,38,0.00,,CLR,0.00,267.00,VWS V14.01,2013-01-23 16:53:00,
2013-01-23 11:58:00,19.0,-4.1,30.31,NW,323,0.0,7.0,35,0.00,,CLR,0.00,266.00,VWS V14.01,2013-01-23 16:58:00,
2013-01-23 12:03:00,19.2,-2.8,30.31,West,278,11.0,11.0,37,0.00,,CLR,0.00,253.00,VWS V14.01,2013-01-23 17:03:00,
2013-01-23 12:08:00,19.3,-3.3,30.30,NW,315,1.0,10.0,36,0.00,,CLR,0.00,238.00,VWS V14.01,2013-01-23 17:08:00,
2013-01-23 12:13:00,19.3,-3.3,30.30,WNW,302,6.0,12.0,36,0.00,,CLR,0.00,225.00,VWS V14.01,2013-01-23 17:13:00,
2013-01-23 12:19:00,19.3,-3.3,30.30,North,0,1.0,12.0,36,0.00,,CLR,0.00,213.00,VWS V14.01,2013-01-23 17:19:00,
2013-01-23 12:24:00,19.3,-3.9,30.29,NNW,329,5.0,12.0,35,0.00,,CLR,0.00,208.00,VWS V14.01,2013-01-23 17:24:00,
2013-01-23 12:29:00,19.6,-3.6,30.29,WNW,296,5.0,8.0,35,0.00,,CLR,0.00,213.00,VWS V14.01,2013-01-23 17:29:00,
2013-01-23 12:34:00,19.8,-3.4,30.29,NW,311,7.0,8.0,35,0.00,,CLR,0.00,241.00,VWS V14.01,2013-01-23 17:34:00,
2013-01-23 12:39:00,20.0,-3.8,30.28,WNW,302,7.0,12.0,34,0.00,,CLR,0.00,255.00,VWS V14.01,2013-01-23 17:39:00,
2013-01-23 12:44:00,20.3,-4.2,30.28,NNW,343,0.0,12.0,33,0.00,,CLR,0.00,252.00,VWS V14.01,2013-01-23 17:44:00,
2013-01-23 12:49:00,20.3,-4.8,30.27,NW,323,0.0,9.0,32,0.00,,CLR,0.00,294.00,VWS V14.01,2013-01-23 17:49:00,
2013-01-23 12:54:00,20.4,-3.5,30.27,North,352,5.0,9.0,34,0.00,,CLR,0.00,280.00,VWS V14.01,2013-01-23 17:54:00,
2013-01-23 12:59:00,20.6,-2.7,30.27,North,359,5.0,8.0,35,0.00,,CLR,0.00,280.00,VWS V14.01,2013-01-23 17:59:00,
2013-01-23 13:05:00,20.9,-2.4,30.26,North,0,3.0,10.0,35,0.00,,CLR,0.00,326.00,VWS V14.01,2013-01-23 18:05:00,
2013-01-23 13:10:00,21.1,-2.3,30.26,North,0,6.0,7.0,35,0.00,,CLR,0.00,250.00,VWS V14.01,2013-01-23 18:10:00,
2013-01-23 13:15:00,20.8,-4.4,30.26,NW,318,9.0,12.0,32,0.00,,CLR,0.00,273.00,VWS V14.01,2013-01-23 18:15:00,
2013-01-23 13:20:00,20.8,-3.8,30.26,NW,315,6.0,12.0,33,0.00,,CLR,0.00,260.00,VWS V14.01,2013-01-23 18:20:00,
2013-01-23 13:25:00,20.9,-5.0,30.26,NW,312,5.0,12.0,31,0.00,,CLR,0.00,267.00,VWS V14.01,2013-01-23 18:25:00,
2013-01-23 13:30:00,21.1,-2.9,30.26,North,0,5.0,8.0,34,0.00,,CLR,0.00,229.00,VWS V14.01,2013-01-23 18:30:00,
2013-01-23 13:35:00,21.4,-3.9,30.25,NNW,328,7.0,7.0,32,0.00,,CLR,0.00,208.00,VWS V14.01,2013-01-23 18:35:00,
2013-01-23 13:40:00,21.2,-5.4,30.25,North,0,3.0,10.0,30,0.00,,CLR,0.00,197.00,VWS V14.01,2013-01-23 18:40:00,
2013-01-23 13:45:00,21.1,-4.8,30.25,NW,322,1.0,3.0,31,0.00,,CLR,0.00,197.00,VWS V14.01,2013-01-23 18:45:00,
2013-01-23 13:50:00,20.9,-5.0,30.25,WNW,299,1.0,8.0,31,0.00,,CLR,0.00,202.00,VWS V14.01,2013-01-23 18:50:00,
2013-01-23 13:56:00,20.9,-5.0,30.25,NNW,343,2.0,5.0,31,0.00,,CLR,0.00,195.00,VWS V14.01,2013-01-23 18:56:00,
2013-01-23 14:01:00,21.1,-4.8,30.25,NNW,347,1.0,8.0,31,0.00,,CLR,0.00,190.00,VWS V14.01,2013-01-23 19:01:00,
2013-01-23 14:06:00,21.2,-4.0,30.25,North,356,2.0,2.0,32,0.00,,CLR,0.00,185.00,VWS V14.01,2013-01-23 19:06:00,
2013-01-23 14:11:00,21.2,-4.7,30.25,WNW,301,2.0,7.0,31,0.00,,CLR,0.00,164.00,VWS V14.01,2013-01-23 19:11:00,
2013-01-23 14:16:00,21.2,-4.7,30.25,North,0,1.0,4.0,31,0.00,,CLR,0.00,155.00,VWS V14.01,2013-01-23 19:16:00,
2013-01-23 14:21:00,21.5,-3.1,30.24,North,359,0.0,4.0,33,0.00,,CLR,0.00,158.00,VWS V14.01,2013-01-23 19:21:00,
2013-01-23 14:26:00,21.9,-4.1,30.24,West,274,0.0,3.0,31,0.00,,CLR,0.00,153.00,VWS V14.01,2013-01-23 19:26:00,
2013-01-23 14:31:00,21.9,-4.1,30.24,WNW,284,1.0,3.0,31,0.00,,CLR,0.00,151.00,VWS V14.01,2013-01-23 19:31:00,
2013-01-23 14:36:00,22.0,-4.7,30.23,WNW,301,0.0,2.0,30,0.00,,CLR,0.00,155.00,VWS V14.01,2013-01-23 19:36:00,
2013-01-23 14:42:00,22.0,-5.4,30.23,SSE,161,0.0,3.0,29,0.00,,CLR,0.00,157.00,VWS V14.01,2013-01-23 19:42:00,
2013-01-23 14:47:00,21.9,-5.5,30.23,North,357,0.0,8.0,29,0.00,,CLR,0.00,155.00,VWS V14.01,2013-01-23 19:47:00,
2013-01-23 14:52:00,21.9,-5.5,30.23,North,356,0.0,8.0,29,0.00,,CLR,0.00,155.00,VWS V14.01,2013-01-23 19:52:00,
2013-01-23 14:57:00,21.9,-5.5,30.23,North,4,1.0,3.0,29,0.00,,CLR,0.00,158.00,VWS V14.01,2013-01-23 19:57:00,
2013-01-23 15:02:00,22.0,-6.1,30.23,East,88,0.0,3.0,28,0.00,,CLR,0.00,165.00,VWS V14.01,2013-01-23 20:02:00,
2013-01-23 15:07:00,22.0,-6.1,30.23,NNE,32,0.0,3.0,28,0.00,,CLR,0.00,160.00,VWS V14.01,2013-01-23 20:07:00,
2013-01-23 15:12:00,22.3,-4.4,30.23,North,0,0.0,5.0,30,0.00,,CLR,0.00,151.00,VWS V14.01,2013-01-23 20:12:00,
2013-01-23 15:17:00,22.5,-4.9,30.23,North,7,3.0,6.0,29,0.00,,CLR,0.00,148.00,VWS V14.01,2013-01-23 20:17:00,
2013-01-23 15:23:00,22.5,-5.7,30.23,North,11,1.0,6.0,28,0.00,,CLR,0.00,146.00,VWS V14.01,2013-01-23 20:23:00,
2013-01-23 15:28:00,22.6,-5.6,30.23,North,1,2.0,5.0,28,0.00,,CLR,0.00,130.00,VWS V14.01,2013-01-23 20:28:00,
2013-01-23 15:33:00,22.6,-5.6,30.23,North,1,8.0,10.0,28,0.00,,CLR,0.00,116.00,VWS V14.01,2013-01-23 20:33:00,
2013-01-23 15:38:00,22.6,-5.6,30.22,North,0,2.0,7.0,28,0.00,,CLR,0.00,113.00,VWS V14.01,2013-01-23 20:38:00,
2013-01-23 15:43:00,22.6,-5.6,30.22,NNE,13,2.0,7.0,28,0.00,,CLR,0.00,104.00,VWS V14.01,2013-01-23 20:43:00,
2013-01-23 15:48:00,22.8,-6.2,30.22,North,359,0.0,4.0,27,0.00,,CLR,0.00,88.00,VWS V14.01,2013-01-23 20:48:00,
2013-01-23 15:53:00,22.9,-5.3,30.22,NNW,336,3.0,4.0,28,0.00,,CLR,0.00,81.00,VWS V14.01,2013-01-23 20:53:00,
2013-01-23 15:59:00,22.9,-4.6,30.22,North,0,0.0,6.0,29,0.00,,CLR,0.00,74.00,VWS V14.01,2013-01-23 20:59:00,
2013-01-23 16:04:00,22.9,-5.3,30.22,North,0,0.0,6.0,28,0.00,,CLR,0.00,67.00,VWS V14.01,2013-01-23 21:04:00,
2013-01-23 16:09:00,22.9,-5.3,30.21,North,0,0.0,3.0,28,0.00,,CLR,0.00,62.00,VWS V14.01,2013-01-23 21:09:00,
2013-01-23 16:14:00,22.9,-6.1,30.21,ENE,59,0.0,3.0,27,0.00,,CLR,0.00,60.00,VWS V14.01,2013-01-23 21:14:00,
2013-01-23 16:19:00,22.9,-6.1,30.21,NE,47,0.0,3.0,27,0.00,,CLR,0.00,58.00,VWS V14.01,2013-01-23 21:19:00,
2013-01-23 16:24:00,22.9,-6.8,30.21,East,86,0.0,8.0,26,0.00,,CLR,0.00,51.00,VWS V14.01,2013-01-23 21:24:00,
2013-01-23 16:29:00,22.9,-6.1,30.21,East,86,0.0,0.0,27,0.00,,CLR,0.00,51.00,VWS V14.01,2013-01-23 21:29:00,
2013-01-23 16:35:00,23.1,-5.9,30.20,ENE,58,0.0,3.0,27,0.00,,CLR,0.00,48.00,VWS V14.01,2013-01-23 21:35:00,
2013-01-23 16:40:00,23.1,-5.9,30.20,NNE,31,0.0,0.0,27,0.00,,CLR,0.00,37.00,VWS V14.01,2013-01-23 21:40:00,
2013-01-23 16:45:00,23.1,-5.2,30.20,North,0,0.0,3.0,28,0.00,,CLR,0.00,37.00,VWS V14.01,2013-01-23 21:45:00,
2013-01-23 16:50:00,23.1,-5.9,30.21,North,0,0.0,1.0,27,0.00,,CLR,0.00,26.00,VWS V14.01,2013-01-23 21:50:00,
2013-01-23 16:55:00,23.1,-5.2,30.21,NNE,23,0.0,2.0,28,0.00,,CLR,0.00,18.00,VWS V14.01,2013-01-23 21:55:00,
2013-01-23 17:00:00,23.1,-5.9,30.21,North,10,0.0,3.0,27,0.00,,CLR,0.00,18.00,VWS V14.01,2013-01-23 22:00:00,
2013-01-23 17:05:00,23.1,-5.2,30.21,NNW,335,2.0,3.0,28,0.00,,CLR,0.00,11.00,VWS V14.01,2013-01-23 22:05:00,
2013-01-23 17:10:00,23.1,-5.2,30.21,NNW,342,0.0,3.0,28,0.00,,CLR,0.00,9.00,VWS V14.01,2013-01-23 22:10:00,
2013-01-23 17:15:00,22.9,-5.3,30.21,West,261,0.0,0.0,28,0.00,,CLR,0.00,5.00,VWS V14.01,2013-01-23 22:15:00,
2013-01-23 17:20:00,22.9,-5.3,30.20,WSW,258,0.0,1.0,28,0.00,,CLR,0.00,0.00,VWS V14.01,2013-01-23 22:20:00,
2013-01-23 17:25:00,22.8,-6.2,30.20,WSW,258,0.0,0.0,27,0.00,,CLR,0.00,0.00,VWS V14.01,2013-01-23 22:25:00,
2013-01-23 17:31:00,22.8,-5.4,30.20,WSW,258,0.0,0.0,28,0.00,,CLR,0.00,0.00,VWS V14.01,2013-01-23 22:31:00,
2013-01-23 17:36:00,22.6,-4.9,30.20,WSW,258,0.0,0.0,29,0.00,,CLR,0.00,0.00,VWS V14.01,2013-01-23 22:36:00,
2013-01-23 17:41:00,22.6,-4.9,30.20,East,86,0.0,2.0,29,0.00,,CLR,0.00,0.00,VWS V14.01,2013-01-23 22:41:00,
2013-01-23 17:46:00,22.6,-4.9,30.20,ESE,123,0.0,0.0,29,0.00,,CLR,0.00,0.00,VWS V14.01,2013-01-23 22:46:00,
2013-01-23 17:51:00,22.5,-4.2,30.20,SE,143,0.0,2.0,30,0.00,,CLR,0.00,0.00,VWS V14.01,2013-01-23 22:51:00,
2013-01-23 17:56:00,22.5,-4.2,30.20,SE,138,1.0,2.0,30,0.00,,CLR,0.00,0.00,VWS V14.01,2013-01-23 22:56:00,
2013-01-23 18:01:00,22.3,-3.7,30.20,SE,138,0.0,2.0,31,0.00,,CLR,0.00,0.00,VWS V14.01,2013-01-23 23:01:00,
2013-01-23 18:06:00,22.3,-4.4,30.20,SE,138,0.0,0.0,30,0.00,,CLR,0.00,0.00,VWS V14.01,2013-01-23 23:06:00,
2013-01-23 18:11:00,22.2,-2.5,30.20,SE,138,0.0,0.0,33,0.00,,CLR,0.00,0.00,VWS V14.01,2013-01-23 23:11:00,
2013-01-23 18:17:00,22.0,-2.1,30.20,SE,138,0.0,0.0,34,0.00,,CLR,0.00,0.00,VWS V14.01,2013-01-23 23:17:00,
2013-01-23 18:22:00,21.9,-2.2,30.20,SE,138,0.0,0.0,34,0.00,,CLR,0.00,0.00,VWS V14.01,2013-01-23 23:22:00,
2013-01-23 18:27:00,21.9,-2.2,30.20,SE,138,0.0,0.0,34,0.00,,CLR,0.00,0.00,VWS V14.01,2013-01-23 23:27:00,
2013-01-23 18:32:00,21.7,-2.3,30.20,SE,138,0.0,0.0,34,0.00,,CLR,0.00,0.00,VWS V14.01,2013-01-23 23:32:00,
2013-01-23 18:37:00,21.7,-2.3,30.19,SE,138,0.0,0.0,34,0.00,,CLR,0.00,0.00,VWS V14.01,2013-01-23 23:37:00,
2013-01-23 18:42:00,21.7,-2.3,30.19,SE,138,0.0,0.0,34,0.00,,CLR,0.00,0.00,VWS V14.01,2013-01-23 23:42:00,
2013-01-23 18:47:00,21.7,-1.7,30.19,SE,138,0.0,0.0,35,0.00,,CLR,0.00,0.00,VWS V14.01,2013-01-23 23:47:00,
2013-01-23 18:52:00,21.7,-1.7,30.18,SE,138,0.0,0.0,35,0.00,,CLR,0.00,0.00,VWS V14.01,2013-01-23 23:52:00,
2013-01-23 18:57:00,21.5,-1.9,30.18,SE,138,0.0,0.0,35,0.00,,CLR,0.00,0.00,VWS V14.01,2013-01-23 23:57:00,
2013-01-23 19:02:00,21.5,-1.3,30.18,SE,138,0.0,0.0,36,0.00,,CLR,0.00,0.00,VWS V14.01,2013-01-24 00:02:00,
2013-01-23 19:07:00,21.5,-1.9,30.18,SE,138,0.0,0.0,35,0.00,,CLR,0.00,0.00,VWS V14.01,2013-01-24 00:07:00,
2013-01-23 19:13:00,21.5,-2.5,30.18,SE,138,0.0,0.0,34,0.00,,CLR,0.00,0.00,VWS V14.01,2013-01-24 00:13:00,
2013-01-23 19:18:00,21.7,-2.3,30.18,SE,138,0.0,0.0,34,0.00,,CLR,0.00,0.00,VWS V14.01,2013-01-24 00:18:00,
2013-01-23 19:23:00,21.7,-1.1,30.18,SE,138,0.0,0.0,36,0.00,,CLR,0.00,0.00,VWS V14.01,2013-01-24 00:23:00,
2013-01-23 19:28:00,21.7,-1.1,30.18,SE,138,0.0,0.0,36,0.00,,CLR,0.00,0.00,VWS V14.01,2013-01-24 00:28:00,
2013-01-23 19:33:00,21.7,-1.7,30.18,SE,138,0.0,0.0,35,0.00,,CLR,0.00,0.00,VWS V14.01,2013-01-24 00:33:00,
2013-01-23 19:38:00,21.7,-1.7,30.18,SE,138,0.0,0.0,35,0.00,,CLR,0.00,0.00,VWS V14.01,2013-01-24 00:38:00,
2013-01-23 19:43:00,21.7,-0.6,30.18,SE,138,0.0,0.0,37,0.00,,CLR,0.00,0.00,VWS V14.01,2013-01-24 00:43:00,
2013-01-23 19:48:00,21.7,0.0,30.18,SE,138,0.0,0.0,38,0.00,,CLR,0.00,0.00,VWS V14.01,2013-01-24 00:48:00,
2013-01-23 19:53:00,21.5,0.4,30.18,SE,138,0.0,0.0,39,0.00,,CLR,0.00,0.00,VWS V14.01,2013-01-24 00:53:00,
2013-01-23 19:58:00,21.5,0.9,30.18,SE,138,0.0,0.0,40,0.00,,CLR,0.00,0.00,VWS V14.01,2013-01-24 00:58:00,
2013-01-23 20:03:00,21.7,0.0,30.18,SE,138,0.0,0.0,38,0.00,,CLR,0.00,0.00,VWS V14.01,2013-01-24 01:03:00,
2013-01-23 20:09:00,21.7,1.1,30.18,SE,138,0.0,0.0,40,0.00,,CLR,0.00,0.00,VWS V14.01,2013-01-24 01:09:00,
2013-01-23 20:14:00,21.9,0.2,30.18,SW,232,1.0,6.0,38,0.00,,CLR,0.00,0.00,VWS V14.01,2013-01-24 01:14:00,
2013-01-23 20:19:00,21.9,2.8,30.18,WNW,292,0.0,0.0,43,0.00,,CLR,0.00,0.00,VWS V14.01,2013-01-24 01:19:00,
2013-01-23 20:24:00,22.0,4.4,30.17,NW,319,0.0,3.0,46,0.00,,CLR,0.00,0.00,VWS V14.01,2013-01-24 01:24:00,
2013-01-23 20:29:00,22.0,7.9,30.17,NW,320,2.0,7.0,54,0.00,,CLR,0.00,0.00,VWS V14.01,2013-01-24 01:29:00,
2013-01-23 20:34:00,22.0,8.7,30.18,NW,308,0.0,7.0,56,0.00,,CLR,0.00,0.00,VWS V14.01,2013-01-24 01:34:00,
2013-01-23 20:39:00,21.9,9.0,30.18,NNW,330,0.0,3.0,57,0.00,,CLR,0.00,0.00,VWS V14.01,2013-01-24 01:39:00,
2013-01-23 20:44:00,21.9,9.4,30.18,NNW,339,3.0,5.0,58,0.00,,CLR,0.00,0.00,VWS V14.01,2013-01-24 01:44:00,
2013-01-23 20:49:00,21.5,9.8,30.17,NW,304,0.0,2.0,60,0.00,,CLR,0.00,0.00,VWS V14.01,2013-01-24 01:49:00,
2013-01-23 20:55:00,21.5,10.5,30.17,NW,304,0.0,2.0,62,0.00,,CLR,0.00,0.00,VWS V14.01,2013-01-24 01:55:00,
2013-01-23 21:00:00,21.4,10.8,30.17,NW,304,0.0,0.0,63,0.00,,CLR,0.00,0.00,VWS V14.01,2013-01-24 02:00:00,
2013-01-23 21:05:00,21.2,10.9,30.17,NW,304,0.0,0.0,64,0.00,,CLR,0.00,0.00,VWS V14.01,2013-01-24 02:05:00,
2013-01-23 21:10:00,21.1,11.2,30.17,NW,320,0.0,3.0,65,0.00,,CLR,0.00,0.00,VWS V14.01,2013-01-24 02:10:00,
2013-01-23 21:15:00,20.9,11.3,30.17,NW,320,0.0,0.0,66,0.00,,CLR,0.00,0.00,VWS V14.01,2013-01-24 02:15:00,
2013-01-23 21:20:00,20.9,11.7,30.16,NW,320,0.0,0.0,67,0.00,,CLR,0.00,0.00,VWS V14.01,2013-01-24 02:20:00,
2013-01-23 21:25:00,20.9,12.0,30.16,NW,320,0.0,0.0,68,0.00,,CLR,0.00,0.00,VWS V14.01,2013-01-24 02:25:00,
2013-01-23 21:30:00,20.8,12.2,30.16,NW,320,0.0,0.0,69,0.00,,CLR,0.00,0.00,VWS V14.01,2013-01-24 02:30:00,
2013-01-23 21:36:00,20.6,13.0,30.16,NW,320,0.0,0.0,72,0.00,,CLR,0.00,0.00,VWS V14.01,2013-01-24 02:36:00,
2013-01-23 21:41:00,20.4,13.1,30.16,NW,320,0.0,0.0,73,0.00,,CLR,0.00,0.00,VWS V14.01,2013-01-24 02:41:00,
2013-01-23 21:46:00,20.3,13.7,30.16,NW,320,0.0,0.0,75,0.00,,CLR,0.00,0.00,VWS V14.01,2013-01-24 02:46:00,
2013-01-23 21:51:00,20.1,14.1,30.16,NW,320,0.0,0.0,77,0.00,,CLR,0.00,0.00,VWS V14.01,2013-01-24 02:51:00,
2013-01-23 21:56:00,20.0,14.3,30.16,NW,320,0.0,0.0,78,0.00,,CLR,0.00,0.00,VWS V14.01,2013-01-24 02:56:00,
2013-01-23 22:01:00,19.8,14.4,30.16,NW,320,0.0,0.0,79,0.00,,CLR,0.00,0.00,VWS V14.01,2013-01-24 03:01:00,
2013-01-23 22:06:00,19.6,14.4,30.15,ENE,72,0.0,0.0,80,0.00,,CLR,0.00,0.00,VWS V14.01,2013-01-24 03:06:00,
2013-01-23 22:11:00,19.5,14.6,30.15,ENE,72,0.0,0.0,81,0.00,,CLR,0.00,0.00,VWS V14.01,2013-01-24 03:11:00,
2013-01-23 22:16:00,19.3,14.4,30.15,ENE,72,0.0,0.0,81,0.00,,CLR,0.00,0.00,VWS V14.01,2013-01-24 03:16:00,
2013-01-23 22:21:00,19.2,14.6,30.15,ENE,72,0.0,0.0,82,0.00,,CLR,0.00,0.00,VWS V14.01,2013-01-24 03:21:00,
2013-01-23 22:27:00,19.0,14.4,30.15,ENE,72,0.0,0.0,82,0.00,,CLR,0.00,0.00,VWS V14.01,2013-01-24 03:27:00,
2013-01-23 22:32:00,18.9,14.6,30.15,ENE,72,0.0,0.0,83,0.00,,CLR,0.00,0.00,VWS V14.01,2013-01-24 03:32:00,
2013-01-23 22:37:00,18.9,14.6,30.14,ENE,72,0.0,0.0,83,0.00,,CLR,0.00,0.00,VWS V14.01,2013-01-24 03:37:00,
2013-01-23 22:42:00,18.9,14.9,30.14,ENE,72,0.0,0.0,84,0.00,,CLR,0.00,0.00,VWS V14.01,2013-01-24 03:42:00,
2013-01-23 22:47:00,18.7,14.7,30.14,ENE,72,0.0,0.0,84,0.00,,CLR,0.00,0.00,VWS V14.01,2013-01-24 03:47:00,
2013-01-23 22:52:00,18.7,14.7,30.14,ENE,72,0.0,0.0,84,0.00,,CLR,0.00,0.00,VWS V14.01,2013-01-24 03:52:00,
2013-01-23 22:55:00,18.5,15.0,30.11,ENE,72,0.0,0.0,86,0.00,,CLR,0.00,0.00,VWS V14.01,2013-01-24 03:55:00,
2013-01-23 22:56:00,18.5,15.0,30.11,ENE,72,0.0,0.0,86,0.00,,CLR,0.00,0.00,VWS V14.01,2013-01-24 03:56:00,
2013-01-23 22:57:00,18.7,14.7,30.14,ENE,72,0.0,0.0,84,0.00,,CLR,0.00,0.00,VWS V14.01,2013-01-24 03:57:00,
2013-01-23 22:58:00,18.5,15.0,30.11,ENE,72,0.0,0.0,86,0.00,,CLR,0.00,0.00,VWS V14.01,2013-01-24 03:58:00,
2013-01-23 22:59:00,18.5,15.0,30.11,ENE,72,0.0,0.0,86,0.00,,CLR,0.00,0.00,VWS V14.01,2013-01-24 03:59:00,
2013-01-23 23:00:00,18.5,15.0,30.11,ENE,72,0.0,0.0,86,0.00,,CLR,0.00,0.00,VWS V14.01,2013-01-24 04:00:00,
2013-01-23 23:01:00,18.5,15.0,30.11,ENE,72,0.0,0.0,86,0.00,,CLR,0.00,0.00,VWS V14.01,2013-01-24 04:01:00,
2013-01-23 23:02:00,18.5,14.5,30.14,ENE,72,0.0,0.0,84,0.00,,CLR,0.00,0.00,VWS V14.01,2013-01-24 04:02:00,
2013-01-23 23:03:00,18.5,15.0,30.11,ENE,72,0.0,0.0,86,0.00,,CLR,0.00,0.00,VWS V14.01,2013-01-24 04:03:00,
2013-01-23 23:04:00,18.5,15.0,30.11,ENE,72,0.0,0.0,86,0.00,,CLR,0.00,0.00,VWS V14.01,2013-01-24 04:04:00,
2013-01-23 23:05:00,18.5,15.0,30.11,ENE,72,0.0,0.0,86,0.00,,CLR,0.00,0.00,VWS V14.01,2013-01-24 04:05:00,
2013-01-23 23:06:00,18.5,15.0,30.11,ENE,72,0.0,0.0,86,0.00,,CLR,0.00,0.00,VWS V14.01,2013-01-24 04:06:00,
2013-01-23 23:07:00,18.5,14.5,30.13,ENE,72,0.0,0.0,84,0.00,,CLR,0.00,0.00,VWS V14.01,2013-01-24 04:07:00,
2013-01-23 23:08:00,18.5,15.0,30.11,ENE,72,0.0,1.0,86,0.00,,CLR,0.00,0.00,VWS V14.01,2013-01-24 04:08:00,
2013-01-23 23:09:00,18.5,15.0,30.11,ENE,72,0.0,1.0,86,0.00,,CLR,0.00,0.00,VWS V14.01,2013-01-24 04:09:00,
2013-01-23 23:10:00,18.5,15.3,30.11,ENE,72,0.0,1.0,87,0.00,,CLR,0.00,0.00,VWS V14.01,2013-01-24 04:10:00,
2013-01-23 23:11:00,18.5,15.3,30.11,ENE,72,0.0,0.0,87,0.00,,CLR,0.00,0.00,VWS V14.01,2013-01-24 04:11:00,
2013-01-23 23:12:00,18.5,14.8,30.13,ENE,72,0.0,0.0,85,0.00,,CLR,0.00,0.00,VWS V14.01,2013-01-24 04:12:00,
2013-01-23 23:13:00,18.5,15.3,30.11,ENE,72,0.0,0.0,87,0.00,,CLR,0.00,0.00,VWS V14.01,2013-01-24 04:13:00,
2013-01-23 23:14:00,18.5,15.3,30.10,ENE,72,0.0,0.0,87,0.00,,CLR,0.00,0.00,VWS V14.01,2013-01-24 04:14:00,
2013-01-23 23:15:00,18.5,15.3,30.10,ENE,72,0.0,0.0,87,0.00,,CLR,0.00,0.00,VWS V14.01,2013-01-24 04:15:00,
2013-01-23 23:16:00,18.5,15.3,30.10,ENE,72,0.0,0.0,87,0.00,,CLR,0.00,0.00,VWS V14.01,2013-01-24 04:16:00,
2013-01-23 23:17:00,18.5,15.3,30.10,ENE,72,0.0,0.0,87,0.00,,CLR,0.00,0.00,VWS V14.01,2013-01-24 04:17:00,
2013-01-23 23:18:00,18.5,14.8,30.13,ENE,72,0.0,0.0,85,0.00,,CLR,0.00,0.00,VWS V14.01,2013-01-24 04:18:00,
2013-01-23 23:19:00,18.5,15.3,30.10,ENE,72,0.0,0.0,87,0.00,,CLR,0.00,0.00,VWS V14.01,2013-01-24 04:19:00,
2013-01-23 23:20:00,18.5,15.3,30.10,ENE,72,0.0,0.0,87,0.00,,CLR,0.00,0.00,VWS V14.01,2013-01-24 04:20:00,
2013-01-23 23:21:00,18.5,15.3,30.10,ENE,72,0.0,0.0,87,0.00,,CLR,0.00,0.00,VWS V14.01,2013-01-24 04:21:00,
2013-01-23 23:23:00,18.5,14.8,30.13,ENE,72,0.0,0.0,85,0.00,,CLR,0.00,0.00,VWS V14.01,2013-01-24 04:23:00,
2013-01-23 23:28:00,18.5,14.8,30.13,ENE,72,0.0,0.0,85,0.00,,CLR,0.00,0.00,VWS V14.01,2013-01-24 04:28:00,
2013-01-23 23:33:00,18.5,14.8,30.13,ENE,72,0.0,0.0,85,0.00,,CLR,0.00,0.00,VWS V14.01,2013-01-24 04:33:00,
2013-01-23 23:38:00,18.5,14.8,30.12,ENE,72,0.0,0.0,85,0.00,,CLR,0.00,0.00,VWS V14.01,2013-01-24 04:38:00,
2013-01-23 23:43:00,18.5,15.0,30.12,ENE,72,0.0,0.0,86,0.00,,CLR,0.00,0.00,VWS V14.01,2013-01-24 04:43:00,
2013-01-23 23:48:00,18.5,15.0,30.12,ENE,72,0.0,0.0,86,0.00,,CLR,0.00,0.00,VWS V14.01,2013-01-24 04:48:00,
2013-01-23 23:53:00,18.5,15.0,30.11,ENE,72,0.0,0.0,86,0.00,,CLR,0.00,0.00,VWS V14.01,2013-01-24 04:53:00,
2013-01-23 23:59:00,18.5,15.0,30.11,ENE,72,0.0,0.0,86,0.00,,CLR,0.00,0.00,VWS V14.01,2013-01-24 04:59:00,